Location: ??????
(55.7522°N, 37.6156°E)
Time: 17:59:49
(UTC+00:00)

Cosmos 614 Rocket - Pass Details

Date: 14 June 2025
Orbit: 729 x 757 km, 74.1° (Epoch: 13 July)

Event Time Altitude Azimuth Distance (km) Brightness Sun altitude
Rises 19:29:49 0° 217° (SW) 3,196 7.0 -6.9°
Reaches altitude 10° 19:32:13 10° 220° (SW) 2,272 6.2 -7.1°
Maximum altitude 19:37:19 64° 302° (WNW) 832 4.5 -7.4°
Drops below altitude 10° 19:42:26 10° 24° (NNE) 2,268 7.1 -7.7°
Sets 19:44:49 0° 28° (NNE) 3,191 7.8 -7.8°
